[[{"header":{"parameterUnit":"m.s-1","parameterCategory":1,"la1":30.2991,"la2":30.254,"lo1":-89.0895,"lo2":-89.0444,"dy":0.0017,"dx":0.0017,"nx":28,"ny":28,"refTime":"2024-02-07T09:00:00:Z","depth":0,"parameterNumber":2,"parameterNumberName":"U-component_of_WINDS"},"data":[0,0,0,0,0,0,0,0,0,0,0,0,0,0,0,0,0,0,0,0,0,0,0,0,0,0,0,0,0,0,0,0,0,0,0,0,0,0,0,0,0,0,0,0,0,0,0,0,0,0,0,0,0,0,0,0,0,0,-3.7179,-3.7179,0,-3.7157,-3.7157,-3.7157,-3.7109,-3.7109,-3.7108,-3.7107,-3.7084,-3.7084,-3.7084,0,0,0,0,0,0,0,0,0,0,0,0,0,-3.7182,-3.7183,-3.7179,-3.7179,-3.7179,-3.7157,-3.7157,-3.7157,-3.711,-3.7108,-3.7107,-3.7106,-3.7084,-3.7084,-3.7084,0,0,0,0,0,0,0,0,0,0,0,0,0,-3.7173,-3.7183,-3.7179,-3.7153,-3.715,-3.7157,-3.7157,-3.7157,-3.711,-3.7108,-3.7107,-3.7106,-3.7084,-3.7084,-3.7085,-3.7116,0,0,-3.7086,-3.7086,0,0,0,0,0,0,0,0,-3.7173,-3.7173,-3.7157,-3.7155,-3.7152,-3.7135,-3.715,-3.7143,-3.711,-3.7125,-3.7107,-3.7105,-3.7102,-3.7101,-3.71,-3.7115,-3.7114,-3.7086,-3.7086,-3.7086,-3.7086,0,0,0,0,0,0,0,-3.7174,-3.7173,-3.7171,-3.7157,-3.7154,-3.7142,-3.714,-3.7148,-3.7122,-3.7124,-3.712,-3.7118,-3.71,-3.71,-3.7099,-3.7114,-3.7086,-3.7086,-3.7087,-3.7087,-3.7154,-3.7156,0,0,0,0,0,0,-3.7179,-3.7174,-3.7171,-3.717,-3.7159,-3.7144,-3.714,-3.7142,-3.7122,-3.7117,-3.712,-3.7116,-3.7099,-3.7098,-3.7098,-3.7133,-3.7086,-3.7087,-3.7087,-3.7153,-3.7155,-3.7156,0,0,0,0,0,0,-3.7179,-3.7179,-3.7172,-3.7171,-3.717,-3.7145,-3.7147,-3.7142,-3.7141,-3.7118,-3.7114,-3.7123,-3.7098,-3.7097,-3.7112,-3.7131,-3.7087,-3.7087,-3.7151,-3.7154,-3.7156,-3.7204,0,0,0,0,0,0,-3.7179,-3.7179,-3.719,-3.7172,-3.717,-3.7186,-3.7148,-3.7143,-3.7142,-3.7137,-3.7121,-3.7117,-3.7097,-3.7112,-3.7112,-3.7131,-3.7088,-3.7149,-3.7152,-3.7155,-3.72,-3.7207,-3.7213,0,0,0,0,0,-3.7179,-3.7204,-3.7191,-3.7191,-3.7183,-3.7187,-3.7186,-3.7163,-3.7144,-3.7155,-3.7141,-3.7117,-3.713,-3.7114,-3.7114,-3.7133,-3.7148,-3.7151,-3.7155,-3.7197,-3.7206,-3.7213,0,0,0,0,0,0,-3.7224,-3.7201,-3.7186,-3.7206,-3.7199,-3.7179,-3.7192,-3.7173,-3.7171,-3.7167,-3.7139,-3.7136,-3.7154,-3.7146,-3.7128,-3.7163,-3.7135,-3.7139,-3.7167,-3.7176,-3.7182,-3.7182,-3.7088,0,0,0,0,0,-3.7237,-3.7242,-3.7222,-3.7241,-3.7239,-3.7217,-3.7218,-3.7201,-3.7192,-3.7189,-3.7176,-3.7169,-3.7172,-3.7174,-3.7175,-3.72,-3.7196,-3.7214,-3.7221,-3.7226,-3.7229,-3.7242,-3.725,-3.7168,-3.7168,-3.7168,0,0,-3.7262,-3.725,-3.7255,-3.725,-3.7243,-3.7249,-3.7214,-3.7222,-3.7226,-3.719,-3.7203,-3.7194,-3.7184,-3.7205,-3.7213,-3.7198,-3.7251,-3.7231,-3.7235,-3.7235,-3.7246,-3.7254,-3.7261,-3.717,-3.717,-3.7169,0,0,-3.731,-3.7302,-3.7317,-3.7312,-3.7302,-3.7287,-3.7291,-3.7275,-3.7268,-3.7281,-3.7254,-3.726,-3.7265,-3.7259,-3.7257,-3.7308,-3.7286,-3.7309,-3.7342,-3.7356,-3.7362,-3.7367,-3.7384,-3.7391,-3.7312,-3.7313,-3.7313,0,-3.7342,-3.735,-3.7328,-3.7338,-3.7337,-3.7306,-3.7321,-3.7317,-3.7308,-3.7308,-3.7292,-3.7299,-3.729,-3.7309,-3.7322,-3.7321,-3.7325,-3.7309,-3.7363,-3.7368,-3.7373,-3.7389,-3.7396,-3.7315,-3.7315,-3.7315,-3.7314,0,-3.739,-3.7397,-3.7411,-3.7403,-3.7404,-3.7417,-3.7397,-3.7401,-3.7385,-3.7373,-3.7387,-3.7377,-3.7375,-3.7379,-3.7364,-3.7396,-3.7387,-3.7368,-3.7339,-3.7384,-3.7398,-3.7404,-3.7319,-3.7318,-3.7317,-3.7317,0,0,-3.7462,-3.7444,-3.745,-3.7446,-3.7435,-3.7439,-3.7452,-3.7451,-3.7455,-3.7451,-3.7461,-3.7467,-3.745,-3.7448,-3.7432,-3.7444,-3.7484,-3.7423,-3.7423,-3.7433,-3.7519,-3.7532,-3.7539,-3.7471,-3.7473,-3.7473,-3.7519,0,-3.7506,-3.7525,-3.7507,-3.753,-3.7535,-3.7509,-3.752,-3.7514,-3.7504,-3.7508,-3.7498,-3.7502,-3.7479,-3.7478,-3.7489,-3.7477,-3.7501,-3.7474,-3.7479,-3.7479,-3.7479,-3.7547,-3.756,-3.7603,-3.7525,-3.7526,-3.7526,0,-3.7558,-3.7557,-3.7581,-3.757,-3.7572,-3.7582,-3.758,-3.7585,-3.7579,-3.7571,-3.7571,-3.7552,-3.7565,-3.7539,-3.7555,-3.7538,-3.754,-3.7535,-3.7536,-3.7533,-3.7503,-3.7544,-3.7616,-3.7622,-3.7535,-3.7535,-3.7534,0,-3.7606,-3.7612,-3.7627,-3.7625,-3.7613,-3.762,-3.7616,-3.7609,-3.761,-3.761,-3.761,-3.7612,-3.7612,-3.7614,-3.7597,-3.758,-3.7615,-3.7588,-3.7608,-3.7609,-3.7614,-3.7613,-3.7686,-3.762,-3.762,-3.762,-3.762,0,-3.7655,-3.767,-3.7648,-3.7657,-3.7674,-3.7654,-3.7672,-3.7664,-3.7659,-3.7666,-3.7645,-3.7652,-3.763,-3.7636,-3.7623,-3.7639,-3.764,-3.7633,-3.7629,-3.7634,-3.7634,-3.7632,-3.7628,-3.7621,-3.7621,-3.7621,-3.762,0,-3.771,-3.7696,-3.771,-3.7698,-3.7696,-3.7709,-3.7699,-3.7707,-3.7697,-3.7707,-3.7709,-3.7693,-3.7699,-3.7683,-3.7686,-3.7678,-3.77,-3.7692,-3.7701,-3.7698,-3.7719,-3.7716,-3.779,-3.7798,-3.7729,-3.773,-3.7731,0,-3.774,-3.7752,-3.7742,-3.7746,-3.7742,-3.7749,-3.7751,-3.7733,-3.7736,-3.7732,-3.7741,-3.7745,-3.7747,-3.7758,-3.7747,-3.775,-3.7741,-3.7767,-3.774,-3.7745,-3.7739,-3.7737,-3.7738,-3.7771,-3.7772,-3.7772,-3.7773,0,-3.7796,-3.7789,-3.7793,-3.7795,-3.7798,-3.7798,-3.7797,-3.7802,-3.7783,-3.7788,-3.7794,-3.7796,-3.78,-3.7805,-3.7806,-3.7801,-3.7784,-3.7782,-3.7786,-3.7789,-3.7794,-3.779,-3.7713,-3.7779,-3.7779,-3.7778,-3.7778,-3.7777,-3.7838,-3.7847,-3.7842,-3.7847,-3.7846,-3.7846,-3.7853,-3.7845,-3.785,-3.7852,-3.7842,-3.7851,-3.7847,-3.7847,-3.7845,-3.7851,-3.7839,-3.7846,-3.7847,-3.7849,-3.7851,-3.7795,-3.7852,-3.7851,-3.7851,-3.7851,-3.7851,0,-3.7891,-3.7888,-3.7893,-3.7893,-3.7897,-3.7883,-3.7882,-3.7886,-3.7894,-3.7892,-3.7896,-3.7903,-3.7908,-3.7899,-3.7903,-3.791,-3.7903,-3.7912,-3.7909,-3.7909,-3.7862,-3.7857,-3.7918,-3.7918,-3.7918,-3.7918,-3.7918,-3.7918,-3.7919,-3.7933,-3.7927,-3.7941,-3.7937,-3.7945,-3.7946,-3.7947,-3.7945,-3.7955,-3.7959,-3.7954,-3.7949,-3.7953,-3.7958,-3.7955,-3.7956,-3.7968,-3.7962,-3.7919,-3.7912,-3.7906,-3.79,-3.7969,-3.7969,-3.8008,-3.8008,-3.8008]},{"header":{"parameterUnit":"m.s-1","parameterCategory":1,"la1":30.2991,"la2":30.254,"lo1":-89.0895,"lo2":-89.0444,"dy":0.0017,"dx":0.0017,"nx":28,"ny":28,"refTime":"2024-02-07T09:00:00:Z","depth":0,"parameterNumber":3,"parameterNumberName":"V-component_of_WINDS"},"data":[0,0,0,0,0,0,0,0,0,0,0,0,0,0,0,0,0,0,0,0,0,0,0,0,0,0,0,0,0,0,0,0,0,0,0,0,0,0,0,0,0,0,0,0,0,0,0,0,0,0,0,0,0,0,0,0,0,0,1.2755,1.2755,0,1.2779,1.278,1.278,1.2887,1.289,1.2893,1.2895,1.2914,1.2912,1.2911,0,0,0,0,0,0,0,0,0,0,0,0,0,1.2797,1.2796,1.2755,1.2755,1.2755,1.2779,1.278,1.278,1.2887,1.289,1.2893,1.2896,1.2915,1.2913,1.291,0,0,0,0,0,0,0,0,0,0,0,0,0,1.2796,1.2795,1.2755,1.2812,1.2817,1.2779,1.278,1.278,1.2886,1.289,1.2894,1.2898,1.2916,1.2913,1.291,1.2817,0,0,1.2902,1.2901,0,0,0,0,0,0,0,0,1.2796,1.2794,1.2803,1.2808,1.2814,1.2834,1.2802,1.2792,1.2885,1.286,1.2895,1.2899,1.2884,1.2884,1.288,1.2818,1.2819,1.2901,1.29,1.2899,1.2898,0,0,0,0,0,0,0,1.2796,1.2793,1.2764,1.2803,1.281,1.2835,1.2839,1.28,1.285,1.2862,1.287,1.2872,1.2888,1.2883,1.2882,1.2819,1.2902,1.2899,1.2897,1.2896,1.2684,1.268,0,0,0,0,0,0,1.2788,1.2793,1.2764,1.2765,1.2814,1.2831,1.2836,1.2824,1.2851,1.2859,1.2869,1.2877,1.2886,1.2885,1.2883,1.2778,1.2899,1.2896,1.2894,1.2688,1.2683,1.2679,0,0,0,0,0,0,1.2789,1.2785,1.2763,1.2781,1.278,1.2827,1.2812,1.2822,1.2818,1.2856,1.2865,1.2855,1.2889,1.2887,1.2834,1.278,1.2895,1.2892,1.2693,1.2687,1.2681,1.2565,0,0,0,0,0,0,1.2789,1.2784,1.275,1.278,1.2779,1.2714,1.2809,1.282,1.2813,1.2824,1.2845,1.2852,1.2891,1.2837,1.2831,1.2778,1.289,1.2698,1.269,1.2683,1.2574,1.2556,1.254,0,0,0,0,0,1.2791,1.2714,1.2748,1.2744,1.2738,1.2711,1.271,1.2758,1.2808,1.2774,1.2799,1.2852,1.2786,1.2831,1.2825,1.277,1.2702,1.2692,1.2684,1.2581,1.2559,1.2541,0,0,0,0,0,0,1.2675,1.2719,1.2757,1.2688,1.2695,1.2729,1.2687,1.2733,1.2724,1.2735,1.2793,1.2797,1.2736,1.2747,1.2796,1.2683,1.2753,1.2742,1.2677,1.2657,1.264,1.2639,1.2888,0,0,0,0,0,1.2641,1.2617,1.2657,1.2593,1.2595,1.264,1.263,1.2667,1.2676,1.2678,1.27,1.2704,1.2686,1.2672,1.2656,1.2576,1.2583,1.2535,1.2519,1.2505,1.2495,1.2455,1.2435,1.265,1.265,1.265,0,0,1.2572,1.2593,1.2574,1.257,1.258,1.2553,1.2641,1.2608,1.2589,1.2673,1.2625,1.2641,1.265,1.2584,1.2556,1.2592,1.2437,1.2493,1.2482,1.248,1.2444,1.2424,1.2406,1.2644,1.2645,1.2646,0,0,1.2432,1.2445,1.2395,1.2403,1.2418,1.2449,1.2436,1.2464,1.2478,1.2432,1.2495,1.2472,1.2437,1.2442,1.244,1.2304,1.2352,1.2297,1.221,1.217,1.2154,1.2139,1.2092,1.2074,1.2287,1.2287,1.2287,0,1.2343,1.2307,1.2362,1.2326,1.2323,1.24,1.2349,1.2354,1.2361,1.2357,1.2398,1.2358,1.2369,1.2306,1.2274,1.2269,1.2257,1.2295,1.2152,1.2138,1.2125,1.208,1.2062,1.228,1.2281,1.2282,1.2282,0,1.2198,1.2171,1.2128,1.2137,1.2129,1.2085,1.2133,1.2117,1.2155,1.2182,1.2134,1.2151,1.2141,1.2129,1.2164,1.2071,1.2093,1.2142,1.2214,1.2097,1.2056,1.204,1.2271,1.2273,1.2275,1.2277,0,0,1.1984,1.2026,1.201,1.2016,1.2038,1.2018,1.1978,1.1971,1.1957,1.196,1.1928,1.1898,1.1944,1.1942,1.1979,1.1944,1.1837,1.1997,1.1998,1.1968,1.1737,1.1701,1.1681,1.1869,1.1866,1.1864,1.1737,0,1.1852,1.1789,1.1838,1.1765,1.1742,1.1816,1.1781,1.179,1.1814,1.1797,1.1823,1.1802,1.1863,1.1862,1.1831,1.1857,1.1792,1.1866,1.184,1.1838,1.1836,1.166,1.1621,1.1501,1.1721,1.1719,1.1717,0,1.169,1.1689,1.1614,1.1644,1.1636,1.1604,1.1603,1.1585,1.1598,1.1618,1.1616,1.1662,1.1625,1.1695,1.1644,1.1694,1.1686,1.1696,1.1693,1.1693,1.1771,1.1656,1.1463,1.1445,1.1692,1.1694,1.1696,0,1.1544,1.1523,1.1477,1.1479,1.1512,1.1488,1.15,1.1517,1.151,1.1508,1.1505,1.1497,1.1493,1.1486,1.1529,1.1576,1.1472,1.1546,1.1488,1.1486,1.1463,1.1464,1.1267,1.1455,1.1456,1.1456,1.1456,0,1.1392,1.1343,1.1412,1.1383,1.1331,1.1388,1.1335,1.1355,1.1369,1.1345,1.1407,1.1383,1.1441,1.1422,1.1455,1.1409,1.1406,1.1421,1.143,1.1416,1.1414,1.1412,1.1422,1.1451,1.1452,1.1453,1.1454,0,1.122,1.1264,1.1219,1.1255,1.1263,1.1223,1.1254,1.1228,1.1257,1.1226,1.1221,1.1266,1.1247,1.129,1.1276,1.1299,1.1233,1.1255,1.123,1.1237,1.1177,1.1182,1.0973,1.0949,1.115,1.1148,1.1147,0,1.1121,1.1086,1.112,1.1109,1.1119,1.1101,1.1095,1.115,1.1141,1.1154,1.1127,1.1114,1.1107,1.1074,1.1104,1.1095,1.1118,1.1045,1.1117,1.1104,1.1119,1.1121,1.1118,1.1031,1.1028,1.1026,1.1024,0,1.0941,1.0965,1.0956,1.0954,1.0947,1.0947,1.0952,1.0939,1.0998,1.0985,1.0968,1.0963,1.0951,1.0938,1.0936,1.0947,1.0995,1.1002,1.0988,1.0973,1.0961,1.0968,1.1191,1.1006,1.1008,1.101,1.101,1.1011,1.0804,1.0777,1.0797,1.0785,1.0795,1.0799,1.0778,1.0805,1.0793,1.0789,1.0822,1.0798,1.0813,1.0816,1.0822,1.0804,1.0837,1.0817,1.0812,1.0806,1.0797,1.0963,1.0804,1.0804,1.0805,1.0805,1.0806,0,1.0628,1.0646,1.0634,1.0641,1.0631,1.0679,1.0688,1.0676,1.0656,1.0666,1.0659,1.064,1.0628,1.0658,1.065,1.063,1.0652,1.0627,1.0629,1.0631,1.0767,1.0781,1.0609,1.0609,1.0609,1.0609,1.0609,1.0609,1.0536,1.0494,1.0521,1.0485,1.0502,1.0482,1.0483,1.0486,1.0495,1.0473,1.0464,1.0484,1.0503,1.0497,1.0488,1.0497,1.0492,1.0459,1.0475,1.0602,1.0621,1.064,1.0653,1.0457,1.0457,1.0341,1.034,1.0339]}]]